Tracking 28790 objects as of 19-Apr-2024
HD Live streaming from Space Station
objects crossing your sky now

SL-16 DEB

Track SL-16 DEB now!
10-day predictions


NORAD ID: 39853
Int'l Code: 1992-093LF
Perigee: 552.2 km
Apogee: 636.0 km
Inclination: 71.3 °
Period: 96.4 minutes
Semi major axis: 6965 km
RCS: 0.0166 m2 (small)
Launch date: December 25, 1992
Source: Commonwealth of Independent States (former USSR) (CIS)
Launch site: TYURATAM MISSILE AND SPACE COMPLEX (TTMTR)

Note: This is SATELLITE DEBRIS
Your satellite tracking list
Your tracking list is empty




NASA's NSSDC Master Catalog

Two Line Element Set (TLE):
1 39853U 92093LF  24106.48514010  .00019380  00000-0  17757-2 0  9997
2 39853  71.2775 181.8501 0060190 232.3858 127.1836 14.93524323532666
Source of the keplerian elements: AFSPC